Time,TemperatureF,DewpointF,PressureIn,WindDirection,WindDirectionDegrees,WindSpeedMPH,WindSpeedGustMPH,Humidity,HourlyPrecipIn,Conditions,Clouds,dailyrainin,SolarRadiationWatts/m^2,SoftwareType,DateUTC
2013-08-12 00:00:00,65.0,65.0,29.13,South,182,2.0,-999.0,100,0.00,,,0.00,0,WeatherHawk,2013-08-12 05:00:00,
2013-08-12 00:05:00,64.8,64.8,29.12,SE,141,0.0,-999.0,100,0.00,,,0.00,0,WeatherHawk,2013-08-12 05:05:00,
2013-08-12 00:10:00,64.8,64.8,29.12,SE,125,0.0,-999.0,100,0.00,,,0.00,0,WeatherHawk,2013-08-12 05:10:00,
2013-08-12 00:15:00,65.0,65.0,29.12,SE,126,0.0,-999.0,100,0.00,,,0.00,0,WeatherHawk,2013-08-12 05:15:00,
2013-08-12 00:20:00,65.0,65.0,29.12,SE,126,0.0,-999.0,100,0.00,,,0.00,0,WeatherHawk,2013-08-12 05:20:00,
2013-08-12 00:25:00,65.3,65.3,29.12,SW,229,0.0,-999.0,100,0.00,,,0.00,0,WeatherHawk,2013-08-12 05:25:00,
2013-08-12 00:30:00,65.3,65.3,29.12,SW,229,0.0,-999.0,100,0.00,,,0.00,0,WeatherHawk,2013-08-12 05:30:00,
2013-08-12 00:35:00,65.3,65.3,29.12,ESE,103,2.0,-999.0,100,0.00,,,0.00,0,WeatherHawk,2013-08-12 05:35:00,
2013-08-12 00:40:00,64.8,64.8,29.12,NNE,25,0.0,-999.0,100,0.00,,,0.00,0,WeatherHawk,2013-08-12 05:40:00,
2013-08-12 00:45:00,64.9,64.9,29.11,SW,215,0.0,-999.0,100,0.00,,,0.00,0,WeatherHawk,2013-08-12 05:45:00,
2013-08-12 00:50:00,65.0,65.0,29.11,NNW,337,0.0,-999.0,100,0.00,,,0.00,0,WeatherHawk,2013-08-12 05:50:00,
2013-08-12 00:55:00,64.8,64.8,29.12,NNW,337,0.0,-999.0,100,0.00,,,0.00,0,WeatherHawk,2013-08-12 05:55:00,
2013-08-12 01:00:00,64.9,64.9,29.11,SW,235,0.0,-999.0,100,0.00,,,0.00,0,WeatherHawk,2013-08-12 06:00:00,
2013-08-12 01:05:00,64.8,64.8,29.12,SW,235,0.0,-999.0,100,0.00,,,0.00,0,WeatherHawk,2013-08-12 06:05:00,
2013-08-12 01:10:00,64.8,64.8,29.11,SSW,199,2.0,-999.0,100,0.00,,,0.00,0,WeatherHawk,2013-08-12 06:10:00,
2013-08-12 01:15:00,65.0,65.0,29.11,SE,124,0.0,-999.0,100,0.00,,,0.00,0,WeatherHawk,2013-08-12 06:15:00,
2013-08-12 01:20:00,64.4,64.4,29.11,WSW,244,2.0,-999.0,100,0.00,,,0.00,0,WeatherHawk,2013-08-12 06:20:00,
2013-08-12 01:25:00,64.6,64.6,29.11,WSW,255,0.0,-999.0,100,0.00,,,0.00,0,WeatherHawk,2013-08-12 06:25:00,
2013-08-12 01:30:00,64.5,64.5,29.11,West,260,0.0,-999.0,100,0.00,,,0.00,0,WeatherHawk,2013-08-12 06:30:00,
2013-08-12 01:35:00,64.2,64.2,29.12,West,260,0.0,-999.0,100,0.00,,,0.00,0,WeatherHawk,2013-08-12 06:35:00,
2013-08-12 01:40:00,63.3,63.3,29.11,SE,131,3.0,-999.0,100,0.00,,,0.00,1,WeatherHawk,2013-08-12 06:40:00,
2013-08-12 01:45:00,64.9,64.9,29.11,SW,234,0.0,-999.0,100,0.00,,,0.00,0,WeatherHawk,2013-08-12 06:45:00,
2013-08-12 01:50:00,64.6,64.6,29.11,SW,214,0.0,-999.0,100,0.00,,,0.00,0,WeatherHawk,2013-08-12 06:50:00,
2013-08-12 01:55:00,64.0,64.0,29.11,WNW,296,0.0,-999.0,100,0.00,,,0.00,0,WeatherHawk,2013-08-12 06:55:00,
2013-08-12 02:00:00,64.1,64.1,29.11,NW,314,0.0,-999.0,100,0.00,,,0.00,0,WeatherHawk,2013-08-12 07:00:00,
2013-08-12 02:05:00,64.3,64.3,29.11,NNW,335,0.0,-999.0,100,0.00,,,0.00,0,WeatherHawk,2013-08-12 07:05:00,
2013-08-12 02:10:00,64.6,64.6,29.10,NNW,335,0.0,-999.0,100,0.00,,,0.00,0,WeatherHawk,2013-08-12 07:10:00,
2013-08-12 02:15:00,64.3,64.3,29.11,NNW,335,0.0,-999.0,100,0.00,,,0.00,0,WeatherHawk,2013-08-12 07:15:00,
2013-08-12 02:20:00,64.1,64.1,29.10,WNW,292,0.0,-999.0,100,0.00,,,0.00,0,WeatherHawk,2013-08-12 07:20:00,
2013-08-12 02:25:00,64.2,64.2,29.10,WNW,292,0.0,-999.0,100,0.00,,,0.00,0,WeatherHawk,2013-08-12 07:25:00,
2013-08-12 02:30:00,64.0,64.0,29.10,SE,145,2.0,-999.0,100,0.00,,,0.00,0,WeatherHawk,2013-08-12 07:30:00,
2013-08-12 02:35:00,64.9,64.9,29.10,SSW,199,2.0,-999.0,100,0.00,,,0.00,0,WeatherHawk,2013-08-12 07:35:00,
2013-08-12 02:40:00,65.1,65.1,29.10,SSW,212,4.0,-999.0,100,0.00,,,0.00,0,WeatherHawk,2013-08-12 07:40:00,
2013-08-12 02:45:00,64.9,64.9,29.10,SW,234,0.0,-999.0,100,0.00,,,0.00,0,WeatherHawk,2013-08-12 07:45:00,
2013-08-12 02:50:00,65.0,65.0,29.10,SW,229,0.0,-999.0,100,0.00,,,0.00,0,WeatherHawk,2013-08-12 07:50:00,
2013-08-12 02:55:00,64.9,64.9,29.09,SW,229,0.0,-999.0,100,0.00,,,0.00,0,WeatherHawk,2013-08-12 07:55:00,
2013-08-12 03:00:00,64.5,64.5,29.09,NNE,19,0.0,-999.0,100,0.00,,,0.00,0,WeatherHawk,2013-08-12 08:00:00,
2013-08-12 03:05:00,64.5,64.5,29.10,NNW,344,0.0,-999.0,100,0.00,,,0.00,0,WeatherHawk,2013-08-12 08:05:00,
2013-08-12 03:10:00,64.1,64.1,29.10,NW,319,0.0,-999.0,100,0.00,,,0.00,0,WeatherHawk,2013-08-12 08:10:00,
2013-08-12 03:15:00,64.5,64.5,29.10,NW,314,0.0,-999.0,100,0.00,,,0.00,0,WeatherHawk,2013-08-12 08:15:00,
2013-08-12 03:20:00,64.2,64.2,29.09,WSW,243,0.0,-999.0,100,0.00,,,0.00,1,WeatherHawk,2013-08-12 08:20:00,
2013-08-12 03:25:00,64.3,64.3,29.09,NE,40,1.0,-999.0,100,0.00,,,0.00,0,WeatherHawk,2013-08-12 08:25:00,
2013-08-12 03:30:00,64.2,64.2,29.10,NE,40,0.0,-999.0,100,0.00,,,0.00,1,WeatherHawk,2013-08-12 08:30:00,
2013-08-12 03:35:00,64.2,64.2,29.09,NE,40,0.0,-999.0,100,0.00,,,0.00,0,WeatherHawk,2013-08-12 08:35:00,
2013-08-12 03:40:00,64.2,64.2,29.10,NE,40,0.0,-999.0,100,0.00,,,0.00,0,WeatherHawk,2013-08-12 08:40:00,
2013-08-12 03:45:00,64.4,64.4,29.10,NE,40,0.0,-999.0,100,0.00,,,0.00,0,WeatherHawk,2013-08-12 08:45:00,
2013-08-12 03:50:00,64.3,64.3,29.09,NE,40,0.0,-999.0,100,0.00,,,0.00,0,WeatherHawk,2013-08-12 08:50:00,
2013-08-12 03:55:00,64.4,64.4,29.10,ESE,122,0.0,-999.0,100,0.00,,,0.00,0,WeatherHawk,2013-08-12 08:55:00,
2013-08-12 04:00:00,64.3,64.3,29.09,East,79,0.0,-999.0,100,0.00,,,0.00,0,WeatherHawk,2013-08-12 09:00:00,
2013-08-12 04:05:00,64.8,64.8,29.09,East,79,0.0,-999.0,100,0.00,,,0.00,0,WeatherHawk,2013-08-12 09:05:00,
2013-08-12 04:10:00,64.4,64.4,29.09,East,99,0.0,-999.0,100,0.00,,,0.00,0,WeatherHawk,2013-08-12 09:10:00,
2013-08-12 04:15:00,64.4,64.4,29.08,NNE,13,0.0,-999.0,100,0.00,,,0.00,0,WeatherHawk,2013-08-12 09:15:00,
2013-08-12 04:20:00,64.5,64.5,29.08,NNE,13,0.0,-999.0,100,0.00,,,0.00,0,WeatherHawk,2013-08-12 09:20:00,
2013-08-12 04:25:00,64.5,64.5,29.08,ESE,113,0.0,-999.0,100,0.00,,,0.00,0,WeatherHawk,2013-08-12 09:25:00,
2013-08-12 04:30:00,64.2,64.2,29.08,ESE,113,0.0,-999.0,100,0.00,,,0.00,0,WeatherHawk,2013-08-12 09:30:00,
2013-08-12 04:35:00,64.3,64.3,29.08,ESE,113,0.0,-999.0,100,0.00,,,0.00,0,WeatherHawk,2013-08-12 09:35:00,
2013-08-12 04:40:00,64.4,64.4,29.08,SE,132,0.0,-999.0,100,0.00,,,0.00,0,WeatherHawk,2013-08-12 09:40:00,
2013-08-12 04:45:00,64.2,64.2,29.08,East,93,0.0,-999.0,100,0.00,,,0.00,0,WeatherHawk,2013-08-12 09:45:00,
2013-08-12 04:50:00,64.2,64.2,29.08,ESE,114,0.0,-999.0,100,0.00,,,0.00,0,WeatherHawk,2013-08-12 09:50:00,
2013-08-12 04:55:00,64.3,64.3,29.08,ESE,108,3.0,-999.0,100,0.00,,,0.00,0,WeatherHawk,2013-08-12 09:55:00,
2013-08-12 05:00:00,64.1,64.1,29.08,ESE,109,2.0,-999.0,100,0.00,,,0.00,0,WeatherHawk,2013-08-12 10:00:00,
2013-08-12 05:05:00,64.5,64.5,29.08,SSE,148,0.0,-999.0,100,0.00,,,0.00,0,WeatherHawk,2013-08-12 10:05:00,
2013-08-12 05:10:00,64.2,64.2,29.08,SE,141,0.0,-999.0,100,0.00,,,0.00,0,WeatherHawk,2013-08-12 10:10:00,
2013-08-12 05:15:00,64.3,64.3,29.08,ESE,118,2.0,-999.0,100,0.00,,,0.00,0,WeatherHawk,2013-08-12 10:15:00,
2013-08-12 05:20:00,64.4,64.4,29.07,East,99,3.0,-999.0,100,0.00,,,0.00,0,WeatherHawk,2013-08-12 10:20:00,
2013-08-12 05:25:00,64.4,64.4,29.08,SE,138,0.0,-999.0,100,0.00,,,0.00,0,WeatherHawk,2013-08-12 10:25:00,
2013-08-12 05:30:00,64.4,64.4,29.07,ESE,103,0.0,-999.0,100,0.00,,,0.00,1,WeatherHawk,2013-08-12 10:30:00,
2013-08-12 05:35:00,64.4,64.4,29.08,East,84,0.0,-999.0,100,0.00,,,0.00,0,WeatherHawk,2013-08-12 10:35:00,
2013-08-12 05:40:00,64.5,64.5,29.07,SE,132,0.0,-999.0,100,0.00,,,0.00,0,WeatherHawk,2013-08-12 10:40:00,
2013-08-12 05:45:00,64.5,64.5,29.07,East,88,0.0,-999.0,100,0.00,,,0.00,0,WeatherHawk,2013-08-12 10:45:00,
2013-08-12 05:50:00,64.6,64.6,29.06,East,88,0.0,-999.0,100,0.00,,,0.00,2,WeatherHawk,2013-08-12 10:50:00,
2013-08-12 05:55:00,64.6,64.6,29.07,East,88,0.0,-999.0,100,0.00,,,0.00,0,WeatherHawk,2013-08-12 10:55:00,
2013-08-12 06:05:00,64.6,64.6,29.07,East,88,0.0,-999.0,100,0.00,,,0.00,3,WeatherHawk,2013-08-12 11:05:00,
2013-08-12 06:10:00,64.7,64.7,29.07,East,88,0.0,-999.0,100,0.00,,,0.00,3,WeatherHawk,2013-08-12 11:10:00,
2013-08-12 06:15:00,64.8,64.8,29.07,NNW,328,0.0,-999.0,100,0.00,,,0.00,4,WeatherHawk,2013-08-12 11:15:00,
2013-08-12 06:20:00,64.9,64.9,29.08,West,273,0.0,-999.0,100,0.00,,,0.00,3,WeatherHawk,2013-08-12 11:20:00,
2013-08-12 06:25:00,64.9,64.9,29.09,West,273,0.0,-999.0,100,0.00,,,0.00,5,WeatherHawk,2013-08-12 11:25:00,
2013-08-12 06:30:00,64.6,64.6,29.08,WSW,258,0.0,-999.0,100,0.00,,,0.00,8,WeatherHawk,2013-08-12 11:30:00,
2013-08-12 06:35:00,64.5,64.5,29.09,WSW,258,0.0,-999.0,100,0.00,,,0.00,15,WeatherHawk,2013-08-12 11:35:00,
2013-08-12 06:40:00,64.7,64.7,29.08,NW,306,2.0,-999.0,100,0.00,,,0.00,16,WeatherHawk,2013-08-12 11:40:00,
2013-08-12 06:45:00,64.5,64.5,29.08,NW,319,4.0,-999.0,100,0.00,,,0.00,21,WeatherHawk,2013-08-12 11:45:00,
2013-08-12 06:50:00,64.5,64.5,29.08,NW,310,0.0,-999.0,100,0.00,,,0.00,21,WeatherHawk,2013-08-12 11:50:00,
2013-08-12 06:55:00,64.4,64.4,29.08,West,270,1.0,-999.0,100,0.00,,,0.00,18,WeatherHawk,2013-08-12 11:55:00,
2013-08-12 07:00:00,64.3,64.3,29.08,West,274,0.0,-999.0,100,0.00,,,0.00,20,WeatherHawk,2013-08-12 12:00:00,
2013-08-12 07:05:00,64.2,64.2,29.08,NW,319,0.0,-999.0,100,0.00,,,0.00,18,WeatherHawk,2013-08-12 12:05:00,
2013-08-12 07:10:00,64.2,64.2,29.08,WNW,294,0.0,-999.0,100,0.00,,,0.00,27,WeatherHawk,2013-08-12 12:10:00,
2013-08-12 07:15:00,64.2,64.2,29.08,WNW,286,1.0,-999.0,100,0.00,,,0.00,35,WeatherHawk,2013-08-12 12:15:00,
2013-08-12 07:20:00,64.1,64.1,29.07,West,269,0.0,-999.0,100,0.00,,,0.00,44,WeatherHawk,2013-08-12 12:20:00,
2013-08-12 07:25:00,64.2,64.2,29.08,North,351,0.0,-999.0,100,0.00,,,0.00,61,WeatherHawk,2013-08-12 12:25:00,
2013-08-12 07:30:00,64.5,64.5,29.07,North,6,0.0,-999.0,100,0.00,,,0.00,113,WeatherHawk,2013-08-12 12:30:00,
2013-08-12 07:35:00,64.8,64.8,29.07,WSW,244,0.0,-999.0,100,0.00,,,0.00,80,WeatherHawk,2013-08-12 12:35:00,
2013-08-12 07:40:00,64.7,64.7,29.07,WSW,244,0.0,-999.0,100,0.00,,,0.00,67,WeatherHawk,2013-08-12 12:40:00,
2013-08-12 07:45:00,64.2,64.2,29.07,West,276,0.0,-999.0,100,0.00,,,0.00,61,WeatherHawk,2013-08-12 12:45:00,
2013-08-12 07:50:00,64.5,64.5,29.07,WSW,252,0.0,-999.0,100,0.00,,,0.00,60,WeatherHawk,2013-08-12 12:50:00,
2013-08-12 07:55:00,64.6,64.6,29.07,NW,326,0.0,-999.0,100,0.00,,,0.00,159,WeatherHawk,2013-08-12 12:55:00,
2013-08-12 08:00:00,64.6,64.6,29.06,WNW,290,0.0,-999.0,100,0.00,,,0.00,162,WeatherHawk,2013-08-12 13:00:00,
2013-08-12 08:05:00,64.7,64.7,29.07,NW,313,5.0,-999.0,100,0.00,,,0.00,152,WeatherHawk,2013-08-12 13:05:00,
2013-08-12 08:10:00,65.0,65.0,29.07,West,262,3.0,-999.0,100,0.00,,,0.00,191,WeatherHawk,2013-08-12 13:10:00,
2013-08-12 08:15:00,64.9,64.9,29.08,West,274,2.0,-999.0,100,0.00,,,0.00,206,WeatherHawk,2013-08-12 13:15:00,
2013-08-12 08:20:00,64.8,64.8,29.07,West,271,4.0,-999.0,100,0.00,,,0.00,169,WeatherHawk,2013-08-12 13:20:00,
2013-08-12 08:25:00,66.0,66.0,29.07,West,275,2.0,-999.0,100,0.00,,,0.00,102,WeatherHawk,2013-08-12 13:25:00,
2013-08-12 08:30:00,65.6,65.6,29.08,WNW,292,4.0,-999.0,100,0.00,,,0.00,143,WeatherHawk,2013-08-12 13:30:00,
2013-08-12 08:35:00,65.2,65.2,29.07,West,274,2.0,-999.0,100,0.00,,,0.00,153,WeatherHawk,2013-08-12 13:35:00,
2013-08-12 08:40:00,65.1,65.1,29.07,NNW,333,4.0,-999.0,100,0.00,,,0.00,146,WeatherHawk,2013-08-12 13:40:00,
2013-08-12 08:45:00,65.7,65.7,29.07,NW,313,1.0,-999.0,100,0.00,,,0.00,181,WeatherHawk,2013-08-12 13:45:00,
2013-08-12 08:50:00,65.9,65.9,29.08,West,281,3.0,-999.0,100,0.00,,,0.00,214,WeatherHawk,2013-08-12 13:50:00,
2013-08-12 08:55:00,65.9,65.7,29.07,NW,322,4.0,-999.0,99,0.00,,,0.00,156,WeatherHawk,2013-08-12 13:55:00,
2013-08-12 09:00:00,66.7,66.7,29.07,WSW,257,3.0,-999.0,100,0.00,,,0.00,156,WeatherHawk,2013-08-12 14:00:00,
2013-08-12 09:05:00,67.2,66.3,29.08,NNW,331,3.0,-999.0,97,0.00,,,0.00,201,WeatherHawk,2013-08-12 14:05:00,
2013-08-12 09:10:00,67.3,65.8,29.07,WNW,284,6.0,-999.0,95,0.00,,,0.00,209,WeatherHawk,2013-08-12 14:10:00,
2013-08-12 09:15:00,67.2,65.4,29.07,WNW,295,3.0,-999.0,94,0.00,,,0.00,199,WeatherHawk,2013-08-12 14:15:00,
2013-08-12 09:20:00,67.8,65.3,29.07,NW,312,3.0,-999.0,92,0.00,,,0.00,260,WeatherHawk,2013-08-12 14:20:00,
2013-08-12 09:25:00,68.7,65.6,29.07,NNW,330,1.0,-999.0,90,0.00,,,0.00,343,WeatherHawk,2013-08-12 14:25:00,
2013-08-12 09:30:00,69.0,64.6,29.07,WSW,258,4.0,-999.0,86,0.00,,,0.00,322,WeatherHawk,2013-08-12 14:30:00,
2013-08-12 09:40:00,68.5,63.5,29.08,NNW,327,3.0,-999.0,84,0.00,,,0.00,205,WeatherHawk,2013-08-12 14:40:00,
2013-08-12 09:45:00,68.5,63.4,29.08,NW,313,5.0,-999.0,84,0.00,,,0.00,190,WeatherHawk,2013-08-12 14:45:00,
2013-08-12 09:50:00,69.7,64.6,29.08,West,280,0.0,-999.0,84,0.00,,,0.00,243,WeatherHawk,2013-08-12 14:50:00,
2013-08-12 09:55:00,68.5,62.8,29.08,NW,310,5.0,-999.0,82,0.00,,,0.00,207,WeatherHawk,2013-08-12 14:55:00,
2013-08-12 10:00:00,68.2,61.1,29.07,NNW,333,6.0,-999.0,78,0.00,,,0.00,207,WeatherHawk,2013-08-12 15:00:00,
2013-08-12 10:05:00,69.1,61.9,29.07,NNW,327,4.0,-999.0,78,0.00,,,0.00,332,WeatherHawk,2013-08-12 15:05:00,
2013-08-12 10:10:00,70.0,61.3,29.07,NW,322,4.0,-999.0,74,0.00,,,0.00,843,WeatherHawk,2013-08-12 15:10:00,
2013-08-12 10:15:00,70.1,60.7,29.07,NW,311,4.0,-999.0,72,0.00,,,0.00,755,WeatherHawk,2013-08-12 15:15:00,
2013-08-12 10:20:00,71.2,57.5,29.07,WSW,257,1.0,-999.0,62,0.00,,,0.00,915,WeatherHawk,2013-08-12 15:20:00,
2013-08-12 10:25:00,72.7,59.3,29.08,NNW,328,3.0,-999.0,63,0.00,,,0.00,889,WeatherHawk,2013-08-12 15:25:00,
2013-08-12 10:30:00,74.1,59.3,29.08,NW,316,1.0,-999.0,60,0.00,,,0.00,842,WeatherHawk,2013-08-12 15:30:00,
2013-08-12 10:35:00,73.6,57.9,29.08,NW,304,3.0,-999.0,58,0.00,,,0.00,768,WeatherHawk,2013-08-12 15:35:00,
2013-08-12 10:40:00,71.8,53.8,29.07,NE,39,2.0,-999.0,53,0.00,,,0.00,808,WeatherHawk,2013-08-12 15:40:00,
2013-08-12 10:45:00,71.3,50.6,29.07,SSE,151,4.0,-999.0,48,0.00,,,0.00,301,WeatherHawk,2013-08-12 15:45:00,
2013-08-12 10:50:00,73.8,55.6,29.08,NW,314,3.0,-999.0,53,0.00,,,0.00,817,WeatherHawk,2013-08-12 15:50:00,
2013-08-12 10:55:00,70.5,51.5,29.07,NNW,333,4.0,-999.0,51,0.00,,,0.00,247,WeatherHawk,2013-08-12 15:55:00,
2013-08-12 11:00:00,73.3,51.2,29.08,East,99,4.0,-999.0,46,0.00,,,0.00,889,WeatherHawk,2013-08-12 16:00:00,
2013-08-12 11:05:00,76.4,53.4,29.08,NW,318,4.0,-999.0,45,0.00,,,0.00,888,WeatherHawk,2013-08-12 16:05:00,
2013-08-12 11:10:00,74.4,49.8,29.06,NNW,343,1.0,-999.0,42,0.00,,,0.00,854,WeatherHawk,2013-08-12 16:10:00,
2013-08-12 11:15:00,72.7,48.9,29.08,ENE,70,2.0,-999.0,43,0.00,,,0.00,856,WeatherHawk,2013-08-12 16:15:00,
2013-08-12 11:20:00,72.8,48.9,29.07,ENE,57,6.0,-999.0,43,0.00,,,0.00,838,WeatherHawk,2013-08-12 16:20:00,
2013-08-12 11:25:00,73.4,48.2,29.07,SE,133,1.0,-999.0,41,0.00,,,0.00,875,WeatherHawk,2013-08-12 16:25:00,
2013-08-12 11:30:00,75.9,49.2,29.07,WNW,298,4.0,-999.0,39,0.00,,,0.00,808,WeatherHawk,2013-08-12 16:30:00,
2013-08-12 11:35:00,74.6,50.6,29.08,SW,229,4.0,-999.0,43,0.00,,,0.00,856,WeatherHawk,2013-08-12 16:35:00,
2013-08-12 11:40:00,77.7,55.2,29.08,WSW,252,3.0,-999.0,46,0.00,,,0.00,971,WeatherHawk,2013-08-12 16:40:00,
2013-08-12 11:45:00,76.6,52.4,29.07,NNW,339,0.0,-999.0,43,0.00,,,0.00,136,WeatherHawk,2013-08-12 16:45:00,
2013-08-12 11:50:00,76.8,53.2,29.06,West,268,2.0,-999.0,44,0.00,,,0.00,941,WeatherHawk,2013-08-12 16:50:00,
2013-08-12 11:55:00,79.7,56.5,29.07,West,263,0.0,-999.0,45,0.00,,,0.00,891,WeatherHawk,2013-08-12 16:55:00,
2013-08-12 12:00:00,76.2,49.4,29.07,WNW,287,2.0,-999.0,39,0.00,,,0.00,926,WeatherHawk,2013-08-12 17:00:00,
2013-08-12 12:05:00,74.3,44.9,29.07,WNW,285,4.0,-999.0,35,0.00,,,0.00,900,WeatherHawk,2013-08-12 17:05:00,
2013-08-12 12:15:00,77.9,48.0,29.07,NW,325,3.0,-999.0,35,0.00,,,0.00,716,WeatherHawk,2013-08-12 17:15:00,
2013-08-12 12:20:00,77.6,49.9,29.06,NW,309,1.0,-999.0,38,0.00,,,0.00,1009,WeatherHawk,2013-08-12 17:20:00,
2013-08-12 12:25:00,79.9,52.7,29.06,West,260,0.0,-999.0,39,0.00,,,0.00,1014,WeatherHawk,2013-08-12 17:25:00,
2013-08-12 12:30:00,78.6,51.6,29.07,WSW,252,4.0,-999.0,39,0.00,,,0.00,753,WeatherHawk,2013-08-12 17:30:00,
2013-08-12 12:35:00,74.6,47.3,29.07,NW,305,6.0,-999.0,38,0.00,,,0.00,972,WeatherHawk,2013-08-12 17:35:00,
2013-08-12 12:40:00,78.3,49.9,29.06,North,0,3.0,-999.0,37,0.00,,,0.00,1057,WeatherHawk,2013-08-12 17:40:00,
2013-08-12 12:45:00,76.7,47.8,29.06,WSW,258,5.0,-999.0,36,0.00,,,0.00,1058,WeatherHawk,2013-08-12 17:45:00,
2013-08-12 12:50:00,76.3,45.9,29.06,NW,323,4.0,-999.0,34,0.00,,,0.00,1065,WeatherHawk,2013-08-12 17:50:00,
2013-08-12 12:55:00,78.2,47.5,29.06,North,351,4.0,-999.0,34,0.00,,,0.00,1114,WeatherHawk,2013-08-12 17:55:00,
2013-08-12 13:00:00,79.9,49.0,29.06,WSW,255,0.0,-999.0,34,0.00,,,0.00,256,WeatherHawk,2013-08-12 18:00:00,
2013-08-12 13:05:00,79.7,52.5,29.06,WNW,294,5.0,-999.0,39,0.00,,,0.00,1071,WeatherHawk,2013-08-12 18:05:00,
2013-08-12 13:10:00,79.9,51.3,29.06,WSW,256,5.0,-999.0,37,0.00,,,0.00,1064,WeatherHawk,2013-08-12 18:10:00,
2013-08-12 13:15:00,79.9,51.3,29.05,WNW,291,3.0,-999.0,37,0.00,,,0.00,297,WeatherHawk,2013-08-12 18:15:00,
2013-08-12 13:25:00,77.6,47.0,29.05,WNW,289,4.0,-999.0,34,0.00,,,0.00,975,WeatherHawk,2013-08-12 18:25:00,
2013-08-12 13:30:00,78.6,45.4,29.05,SW,218,2.0,-999.0,31,0.00,,,0.00,940,WeatherHawk,2013-08-12 18:30:00,
2013-08-12 13:35:00,81.6,46.2,29.04,SW,214,0.0,-999.0,29,0.00,,,0.00,954,WeatherHawk,2013-08-12 18:35:00,
2013-08-12 13:40:00,80.4,47.0,29.04,WNW,290,3.0,-999.0,31,0.00,,,0.00,960,WeatherHawk,2013-08-12 18:40:00,
2013-08-12 13:45:00,80.9,47.4,29.04,WSW,258,4.0,-999.0,31,0.00,,,0.00,976,WeatherHawk,2013-08-12 18:45:00,
2013-08-12 13:50:00,78.5,46.2,29.05,NW,319,8.0,-999.0,32,0.00,,,0.00,323,WeatherHawk,2013-08-12 18:50:00,
2013-08-12 14:00:00,77.9,47.3,29.04,NW,309,9.0,-999.0,34,0.00,,,0.00,415,WeatherHawk,2013-08-12 19:00:00,
2013-08-12 14:05:00,76.4,52.9,29.05,WNW,295,16.0,-999.0,44,0.00,,,0.00,297,WeatherHawk,2013-08-12 19:05:00,
2013-08-12 14:10:00,74.5,59.2,29.05,NNW,327,9.0,-999.0,59,0.00,,,0.00,1116,WeatherHawk,2013-08-12 19:10:00,
2013-08-12 14:15:00,73.8,59.5,29.05,NNW,329,7.0,-999.0,61,0.00,,,0.00,1075,WeatherHawk,2013-08-12 19:15:00,
2013-08-12 14:20:00,72.6,52.3,29.05,NW,313,6.0,-999.0,49,0.00,,,0.00,956,WeatherHawk,2013-08-12 19:20:00,
2013-08-12 14:25:00,75.6,55.0,29.05,NNW,345,4.0,-999.0,49,0.00,,,0.00,888,WeatherHawk,2013-08-12 19:25:00,
2013-08-12 14:30:00,74.6,54.1,29.04,NNW,329,7.0,-999.0,49,0.00,,,0.00,874,WeatherHawk,2013-08-12 19:30:00,
2013-08-12 14:35:00,78.4,56.5,29.05,NNW,347,12.0,-999.0,47,0.00,,,0.00,863,WeatherHawk,2013-08-12 19:35:00,
2013-08-12 14:40:00,77.1,54.7,29.05,NNW,345,4.0,-999.0,46,0.00,,,0.00,240,WeatherHawk,2013-08-12 19:40:00,
2013-08-12 14:45:00,74.5,51.1,29.04,NW,317,8.0,-999.0,44,0.00,,,0.00,906,WeatherHawk,2013-08-12 19:45:00,
2013-08-12 14:50:00,76.6,52.4,29.04,NW,322,5.0,-999.0,43,0.00,,,0.00,830,WeatherHawk,2013-08-12 19:50:00,
2013-08-12 14:55:00,78.7,55.0,29.03,WSW,253,5.0,-999.0,44,0.00,,,0.00,822,WeatherHawk,2013-08-12 19:55:00,
2013-08-12 15:00:00,77.0,52.7,29.04,NW,309,7.0,-999.0,43,0.00,,,0.00,816,WeatherHawk,2013-08-12 20:00:00,
2013-08-12 15:05:00,77.0,52.2,29.04,NNW,328,6.0,-999.0,42,0.00,,,0.00,807,WeatherHawk,2013-08-12 20:05:00,
2013-08-12 15:10:00,81.2,55.2,29.03,West,270,7.0,-999.0,41,0.00,,,0.00,797,WeatherHawk,2013-08-12 20:10:00,
2013-08-12 15:15:00,82.7,56.6,29.03,WNW,284,2.0,-999.0,41,0.00,,,0.00,795,WeatherHawk,2013-08-12 20:15:00,
2013-08-12 15:25:00,80.7,51.2,29.02,West,280,6.0,-999.0,36,0.00,,,0.00,774,WeatherHawk,2013-08-12 20:25:00,
2013-08-12 15:30:00,77.2,45.0,29.03,WNW,292,8.0,-999.0,32,0.00,,,0.00,768,WeatherHawk,2013-08-12 20:30:00,
2013-08-12 15:35:00,81.0,52.2,29.02,WNW,287,7.0,-999.0,37,0.00,,,0.00,761,WeatherHawk,2013-08-12 20:35:00,
2013-08-12 15:40:00,78.8,48.1,29.02,West,271,5.0,-999.0,34,0.00,,,0.00,755,WeatherHawk,2013-08-12 20:40:00,
2013-08-12 15:45:00,82.4,51.2,29.03,West,260,6.0,-999.0,34,0.00,,,0.00,715,WeatherHawk,2013-08-12 20:45:00,
2013-08-12 15:50:00,78.8,43.9,29.02,NNW,331,12.0,-999.0,29,0.00,,,0.00,726,WeatherHawk,2013-08-12 20:50:00,
2013-08-12 15:55:00,80.0,45.8,29.02,West,261,9.0,-999.0,30,0.00,,,0.00,700,WeatherHawk,2013-08-12 20:55:00,
2013-08-12 16:00:00,78.9,45.7,29.03,West,276,7.0,-999.0,31,0.00,,,0.00,711,WeatherHawk,2013-08-12 21:00:00,
2013-08-12 16:05:00,79.4,43.4,29.02,WNW,297,11.0,-999.0,28,0.00,,,0.00,703,WeatherHawk,2013-08-12 21:05:00,
2013-08-12 16:10:00,79.0,44.0,29.02,West,278,10.0,-999.0,29,0.00,,,0.00,657,WeatherHawk,2013-08-12 21:10:00,
2013-08-12 16:15:00,78.2,43.3,29.02,West,259,9.0,-999.0,29,0.00,,,0.00,639,WeatherHawk,2013-08-12 21:15:00,
2013-08-12 16:20:00,78.7,43.8,29.03,WSW,254,9.0,-999.0,29,0.00,,,0.00,625,WeatherHawk,2013-08-12 21:20:00,
2013-08-12 16:25:00,80.8,45.6,29.02,WNW,297,10.0,-999.0,29,0.00,,,0.00,615,WeatherHawk,2013-08-12 21:25:00,
2013-08-12 16:30:00,78.7,43.8,29.02,NW,314,9.0,-999.0,29,0.00,,,0.00,621,WeatherHawk,2013-08-12 21:30:00,
2013-08-12 16:35:00,78.0,44.0,29.03,WNW,294,13.0,-999.0,30,0.00,,,0.00,575,WeatherHawk,2013-08-12 21:35:00,
2013-08-12 16:40:00,78.0,44.9,29.02,NW,315,9.0,-999.0,31,0.00,,,0.00,581,WeatherHawk,2013-08-12 21:40:00,
2013-08-12 16:45:00,77.8,44.7,29.03,NW,306,11.0,-999.0,31,0.00,,,0.00,566,WeatherHawk,2013-08-12 21:45:00,
2013-08-12 16:50:00,78.2,45.9,29.03,NW,306,7.0,-999.0,32,0.00,,,0.00,578,WeatherHawk,2013-08-12 21:50:00,
2013-08-12 16:55:00,76.9,47.1,29.03,West,281,12.0,-999.0,35,0.00,,,0.00,213,WeatherHawk,2013-08-12 21:55:00,
2013-08-12 17:00:00,76.2,45.8,29.02,West,268,12.0,-999.0,34,0.00,,,0.00,196,WeatherHawk,2013-08-12 22:00:00,
2013-08-12 17:05:00,78.4,48.4,29.02,WNW,285,8.0,-999.0,35,0.00,,,0.00,481,WeatherHawk,2013-08-12 22:05:00,
2013-08-12 17:10:00,76.6,46.1,29.03,WNW,293,11.0,-999.0,34,0.00,,,0.00,474,WeatherHawk,2013-08-12 22:10:00,
2013-08-12 17:20:00,77.2,47.4,29.03,WNW,290,8.0,-999.0,35,0.00,,,0.00,438,WeatherHawk,2013-08-12 22:20:00,
2013-08-12 17:25:00,76.2,46.5,29.03,West,261,9.0,-999.0,35,0.00,,,0.00,422,WeatherHawk,2013-08-12 22:25:00,
2013-08-12 17:30:00,77.8,48.7,29.03,NW,315,7.0,-999.0,36,0.00,,,0.00,417,WeatherHawk,2013-08-12 22:30:00,
2013-08-12 17:35:00,77.2,47.4,29.03,NW,326,8.0,-999.0,35,0.00,,,0.00,395,WeatherHawk,2013-08-12 22:35:00,
2013-08-12 17:40:00,77.5,48.4,29.03,NW,308,5.0,-999.0,36,0.00,,,0.00,368,WeatherHawk,2013-08-12 22:40:00,
2013-08-12 17:50:00,77.8,48.7,29.03,West,273,7.0,-999.0,36,0.00,,,0.00,308,WeatherHawk,2013-08-12 22:50:00,
2013-08-12 17:55:00,76.7,48.4,29.02,NW,314,10.0,-999.0,37,0.00,,,0.00,322,WeatherHawk,2013-08-12 22:55:00,
2013-08-12 18:00:00,76.3,47.4,29.03,WNW,293,9.0,-999.0,36,0.00,,,0.00,177,WeatherHawk,2013-08-12 23:00:00,
2013-08-12 18:05:00,76.1,47.9,29.03,West,278,9.0,-999.0,37,0.00,,,0.00,292,WeatherHawk,2013-08-12 23:05:00,
2013-08-12 18:10:00,76.2,48.0,29.02,WNW,286,8.0,-999.0,37,0.00,,,0.00,185,WeatherHawk,2013-08-12 23:10:00,
2013-08-12 18:15:00,76.0,47.1,29.03,West,262,11.0,-999.0,36,0.00,,,0.00,204,WeatherHawk,2013-08-12 23:15:00,
2013-08-12 18:20:00,76.1,47.2,29.02,West,280,5.0,-999.0,36,0.00,,,0.00,197,WeatherHawk,2013-08-12 23:20:00,
2013-08-12 18:25:00,75.7,46.8,29.02,NW,304,5.0,-999.0,36,0.00,,,0.00,172,WeatherHawk,2013-08-12 23:25:00,
2013-08-12 18:30:00,75.3,47.2,29.03,West,270,6.0,-999.0,37,0.00,,,0.00,153,WeatherHawk,2013-08-12 23:30:00,
2013-08-12 18:35:00,75.2,47.8,29.03,WNW,295,6.0,-999.0,38,0.00,,,0.00,139,WeatherHawk,2013-08-12 23:35:00,
2013-08-12 18:40:00,75.0,47.0,29.03,West,265,7.0,-999.0,37,0.00,,,0.00,130,WeatherHawk,2013-08-12 23:40:00,
2013-08-12 18:45:00,74.8,46.8,29.03,NW,311,6.0,-999.0,37,0.00,,,0.00,118,WeatherHawk,2013-08-12 23:45:00,
2013-08-12 18:50:00,75.3,48.6,29.03,WNW,289,4.0,-999.0,39,0.00,,,0.00,110,WeatherHawk,2013-08-12 23:50:00,
2013-08-12 18:55:00,74.0,47.5,29.03,NW,306,5.0,-999.0,39,0.00,,,0.00,115,WeatherHawk,2013-08-12 23:55:00,
2013-08-12 19:00:00,74.6,47.3,29.03,WNW,288,5.0,-999.0,38,0.00,,,0.00,109,WeatherHawk,2013-08-13 00:00:00,
2013-08-12 19:05:00,74.4,47.2,29.03,West,262,4.0,-999.0,38,0.00,,,0.00,120,WeatherHawk,2013-08-13 00:05:00,
2013-08-12 19:10:00,73.9,46.7,29.03,NNW,340,4.0,-999.0,38,0.00,,,0.00,104,WeatherHawk,2013-08-13 00:10:00,
2013-08-12 19:15:00,73.4,47.6,29.03,West,269,4.0,-999.0,40,0.00,,,0.00,92,WeatherHawk,2013-08-13 00:15:00,
2013-08-12 19:20:00,72.3,49.2,29.04,West,280,3.0,-999.0,44,0.00,,,0.00,81,WeatherHawk,2013-08-13 00:20:00,
2013-08-12 19:25:00,72.3,50.3,29.03,WSW,246,3.0,-999.0,46,0.00,,,0.00,59,WeatherHawk,2013-08-13 00:25:00,
2013-08-12 19:30:00,71.6,50.3,29.04,West,267,3.0,-999.0,47,0.00,,,0.00,48,WeatherHawk,2013-08-13 00:30:00,
2013-08-12 19:35:00,71.1,50.4,29.03,West,280,4.0,-999.0,48,0.00,,,0.00,38,WeatherHawk,2013-08-13 00:35:00,
2013-08-12 19:40:00,70.0,50.5,29.04,West,262,2.0,-999.0,50,0.00,,,0.00,28,WeatherHawk,2013-08-13 00:40:00,
2013-08-12 19:45:00,69.8,50.9,29.03,WSW,257,2.0,-999.0,51,0.00,,,0.00,25,WeatherHawk,2013-08-13 00:45:00,
2013-08-12 19:50:00,69.2,51.3,29.04,WSW,252,2.0,-999.0,53,0.00,,,0.00,20,WeatherHawk,2013-08-13 00:50:00,
2013-08-12 19:55:00,69.2,51.8,29.03,WSW,258,3.0,-999.0,54,0.00,,,0.00,12,WeatherHawk,2013-08-13 00:55:00,
2013-08-12 20:00:00,69.2,51.8,29.04,WSW,254,3.0,-999.0,54,0.00,,,0.00,7,WeatherHawk,2013-08-13 01:00:00,
2013-08-12 20:05:00,68.7,51.9,29.03,WSW,255,4.0,-999.0,55,0.00,,,0.00,5,WeatherHawk,2013-08-13 01:05:00,
2013-08-12 20:10:00,68.9,52.1,29.04,West,271,4.0,-999.0,55,0.00,,,0.00,4,WeatherHawk,2013-08-13 01:10:00,
2013-08-12 20:15:00,67.9,52.1,29.04,WSW,257,4.0,-999.0,57,0.00,,,0.00,4,WeatherHawk,2013-08-13 01:15:00,
2013-08-12 20:20:00,67.5,51.7,29.04,WSW,251,5.0,-999.0,57,0.00,,,0.00,3,WeatherHawk,2013-08-13 01:20:00,
2013-08-12 20:25:00,67.1,52.2,29.04,WSW,247,3.0,-999.0,59,0.00,,,0.00,0,WeatherHawk,2013-08-13 01:25:00,
2013-08-12 20:30:00,66.5,52.6,29.05,WSW,249,4.0,-999.0,61,0.00,,,0.00,1,WeatherHawk,2013-08-13 01:30:00,
2013-08-12 20:35:00,66.7,52.3,29.05,West,266,1.0,-999.0,60,0.00,,,0.00,0,WeatherHawk,2013-08-13 01:35:00,
2013-08-12 20:40:00,66.4,52.5,29.05,WSW,256,0.0,-999.0,61,0.00,,,0.00,0,WeatherHawk,2013-08-13 01:40:00,
2013-08-12 20:45:00,65.8,52.9,29.05,West,269,0.0,-999.0,63,0.00,,,0.00,0,WeatherHawk,2013-08-13 01:45:00,
2013-08-12 20:50:00,65.3,53.2,29.05,West,261,0.0,-999.0,65,0.00,,,0.00,0,WeatherHawk,2013-08-13 01:50:00,
2013-08-12 21:00:00,65.8,54.5,29.05,West,264,2.0,-999.0,67,0.00,,,0.00,0,WeatherHawk,2013-08-13 02:00:00,
2013-08-12 21:10:00,64.4,54.7,29.07,West,267,2.0,-999.0,71,0.00,,,0.00,0,WeatherHawk,2013-08-13 02:10:00,
2013-08-12 21:15:00,65.3,55.2,29.06,West,269,2.0,-999.0,70,0.00,,,0.00,0,WeatherHawk,2013-08-13 02:15:00,
2013-08-12 21:20:00,64.3,54.3,29.06,West,272,2.0,-999.0,70,0.00,,,0.00,0,WeatherHawk,2013-08-13 02:20:00,
2013-08-12 21:30:00,63.9,53.9,29.07,WSW,256,0.0,-999.0,70,0.00,,,0.00,0,WeatherHawk,2013-08-13 02:30:00,
2013-08-12 21:35:00,64.1,54.5,29.06,WSW,256,1.0,-999.0,71,0.00,,,0.00,0,WeatherHawk,2013-08-13 02:35:00,
2013-08-12 21:40:00,64.6,54.6,29.07,West,266,0.0,-999.0,70,0.00,,,0.00,0,WeatherHawk,2013-08-13 02:40:00,
2013-08-12 21:45:00,65.5,53.8,29.08,WNW,298,3.0,-999.0,66,0.00,,,0.00,0,WeatherHawk,2013-08-13 02:45:00,
2013-08-12 21:50:00,66.3,52.9,29.08,WNW,285,4.0,-999.0,62,0.00,,,0.00,1,WeatherHawk,2013-08-13 02:50:00,
2013-08-12 21:55:00,65.4,53.3,29.08,West,275,3.0,-999.0,65,0.00,,,0.00,0,WeatherHawk,2013-08-13 02:55:00,
2013-08-12 22:00:00,64.8,53.2,29.08,WSW,256,3.0,-999.0,66,0.00,,,0.00,0,WeatherHawk,2013-08-13 03:00:00,
2013-08-12 22:05:00,64.4,54.0,29.08,West,262,5.0,-999.0,69,0.00,,,0.00,0,WeatherHawk,2013-08-13 03:05:00,
2013-08-12 22:10:00,64.5,53.7,29.08,WNW,286,4.0,-999.0,68,0.00,,,0.00,0,WeatherHawk,2013-08-13 03:10:00,
2013-08-12 22:15:00,65.4,54.2,29.08,WNW,282,3.0,-999.0,67,0.00,,,0.00,0,WeatherHawk,2013-08-13 03:15:00,
2013-08-12 22:20:00,65.6,53.9,29.08,NW,314,3.0,-999.0,66,0.00,,,0.00,0,WeatherHawk,2013-08-13 03:20:00,
2013-08-12 22:25:00,65.6,53.5,29.09,West,277,3.0,-999.0,65,0.00,,,0.00,0,WeatherHawk,2013-08-13 03:25:00,
2013-08-12 22:30:00,65.7,53.2,29.09,NW,316,3.0,-999.0,64,0.00,,,0.00,0,WeatherHawk,2013-08-13 03:30:00,
2013-08-12 22:35:00,65.8,53.3,29.08,NW,304,2.0,-999.0,64,0.00,,,0.00,0,WeatherHawk,2013-08-13 03:35:00,
2013-08-12 22:40:00,65.9,53.3,29.09,West,271,3.0,-999.0,64,0.00,,,0.00,0,WeatherHawk,2013-08-13 03:40:00,
2013-08-12 22:45:00,65.7,53.6,29.08,WNW,286,3.0,-999.0,65,0.00,,,0.00,0,WeatherHawk,2013-08-13 03:45:00,
2013-08-12 22:55:00,64.7,53.9,29.09,West,263,1.0,-999.0,68,0.00,,,0.00,1,WeatherHawk,2013-08-13 03:55:00,
2013-08-12 23:00:00,64.6,53.4,29.09,WSW,258,0.0,-999.0,67,0.00,,,0.00,0,WeatherHawk,2013-08-13 04:00:00,
2013-08-12 23:05:00,64.8,53.6,29.09,West,276,0.0,-999.0,67,0.00,,,0.00,0,WeatherHawk,2013-08-13 04:05:00,
2013-08-12 23:10:00,66.1,54.0,29.09,West,261,2.0,-999.0,65,0.00,,,0.00,0,WeatherHawk,2013-08-13 04:10:00,
2013-08-12 23:15:00,65.0,53.4,29.09,WNW,282,2.0,-999.0,66,0.00,,,0.00,1,WeatherHawk,2013-08-13 04:15:00,
2013-08-12 23:20:00,64.7,53.5,29.10,WSW,244,0.0,-999.0,67,0.00,,,0.00,0,WeatherHawk,2013-08-13 04:20:00,
2013-08-12 23:25:00,64.4,53.6,29.10,WSW,255,2.0,-999.0,68,0.00,,,0.00,0,WeatherHawk,2013-08-13 04:25:00,
2013-08-12 23:30:00,64.0,53.6,29.10,West,270,2.0,-999.0,69,0.00,,,0.00,0,WeatherHawk,2013-08-13 04:30:00,
2013-08-12 23:35:00,64.1,54.5,29.10,WSW,253,2.0,-999.0,71,0.00,,,0.00,0,WeatherHawk,2013-08-13 04:35:00,
2013-08-12 23:40:00,63.7,54.1,29.10,WNW,284,2.0,-999.0,71,0.00,,,0.00,0,WeatherHawk,2013-08-13 04:40:00,
2013-08-12 23:45:00,63.9,54.3,29.10,WNW,285,2.0,-999.0,71,0.00,,,0.00,0,WeatherHawk,2013-08-13 04:45:00,
2013-08-12 23:50:00,63.1,54.3,29.10,West,278,1.0,-999.0,73,0.00,,,0.00,1,WeatherHawk,2013-08-13 04:50:00,